Bastrop, LA

11:37 PM CST on November 22, 2017 (GMT -0600)
Bastrop

Weather History for KBQP - March, 2014

Change the Weather History Date:

Wednesday, March 19, 2014

  Actual Average (KMLU) Record (KMLU)
Temperature  
Mean Temperature 62 °F -  
Max Temperature 74 °F 69 °F 90 °F (1982)
Min Temperature 50 °F 46 °F 28 °F (1965)
Degree Days  
Heating Degree Days 2    
Growing Degree Days 12 (Base 50)    
Moisture  
Dew Point 45 °F    
Average Humidity 56    
Maximum Humidity 85    
Minimum Humidity 24    
Precipitation  
Precipitation 0.00 in - - ()
Sea Level Pressure  
Sea Level Pressure 30.04 in    
Wind  
Wind Speed 7 mph (WSW)    
Max Wind Speed 14 mph    
Max Gust Speed 18 mph    
Visibility 10 miles    
Events      
Averages and records for this station are not official NWS values.
T = Trace of Precipitation, MM = Missing Value Source: NWS Daily Summary

Daily Weather History Graph

Daily Weather History Graph

Search for Another Location

Airport or City:

Trip Planner

Search our weather history database for the weather conditions in past years. The results will help you decide how hot, cold, wet, or windy it might be!

Date:

Astronomy

Mar. 19, 2014 Rise Set
Actual Time 7:12 AM CDT 7:18 PM CDT
Civil Twilight 6:47 AM CDT 7:43 PM CDT
Nautical Twilight 6:19 AM CDT 8:11 PM CDT
Astronomical Twilight 5:50 AM CDT 8:40 PM CDT
Moon 10:25 PM CDT (3/19) 8:48 AM CDT (3/19)
Length of Visible Light 12h 55m
Length of Day
12h 05m
Waning Gibbous, 91% of the Moon is Illuminated
Mar 19
Waning Gibbous
Mar 23
Last Quarter
Mar 30
New
Apr 7
First Quarter
Apr 15
Full

Hourly Weather History & Observations

Time (CDT) Temp. Dew Point Humidity Pressure Visibility Wind Dir Wind Speed Gust Speed Precip Events Conditions
12:15 AM 57.2 °F 49.5 °F 75% 29.87 in 10.0 mi South 8.1 mph - N/A   Clear
12:35 AM 56.7 °F 49.6 °F 77% 29.87 in 10.0 mi South 6.9 mph - N/A   Clear
12:55 AM 56.3 °F 50.0 °F 79% 29.88 in 10.0 mi South 8.1 mph - N/A   Clear
1:15 AM 56.7 °F 50.4 °F 79% 29.91 in 10.0 mi SSW 8.1 mph - N/A   Scattered Clouds
1:35 AM 58.1 °F 51.1 °F 77% 29.94 in 10.0 mi SW 8.1 mph - N/A   Overcast
1:55 AM 58.1 °F 51.3 °F 78% 29.93 in 10.0 mi SSW 8.1 mph - N/A   Overcast
2:15 AM 58.1 °F 51.4 °F 78% 29.94 in 10.0 mi South 6.9 mph - N/A   Overcast
2:35 AM 58.1 °F 51.6 °F 79% 29.94 in 10.0 mi South 10.4 mph - N/A   Overcast
2:55 AM 58.1 °F 51.8 °F 80% 29.93 in 10.0 mi SSW 8.1 mph - N/A   Overcast
3:15 AM 57.6 °F 51.8 °F 81% 29.94 in 10.0 mi SSW 6.9 mph - N/A   Mostly Cloudy
3:35 AM 57.6 °F 51.8 °F 81% 29.95 in 10.0 mi SSW 5.8 mph - N/A   Mostly Cloudy
3:55 AM 58.3 °F 52.3 °F 81% 29.96 in 10.0 mi SSW 8.1 mph - N/A   Overcast
4:15 AM 58.3 °F 52.5 °F 81% 29.95 in 10.0 mi SSW 9.2 mph - N/A   Overcast
4:35 AM 57.6 °F 52.3 °F 83% 29.95 in 10.0 mi South 9.2 mph - N/A   Mostly Cloudy
4:55 AM 58.1 °F 52.7 °F 82% 29.96 in 10.0 mi South 8.1 mph - N/A   Mostly Cloudy
5:15 AM 57.6 °F 52.7 °F 84% 29.96 in 10.0 mi South 6.9 mph - N/A   Mostly Cloudy
5:35 AM 58.1 °F 52.9 °F 83% 29.96 in 10.0 mi South 6.9 mph - N/A   Mostly Cloudy
5:55 AM 57.6 °F 52.9 °F 84% 29.96 in 10.0 mi South 5.8 mph - N/A   Mostly Cloudy
6:15 AM 57.9 °F 53.2 °F 84% 29.97 in 10.0 mi South 6.9 mph - N/A   Mostly Cloudy
6:35 AM 58.3 °F 53.6 °F 84% 29.97 in 10.0 mi South 6.9 mph - N/A   Overcast
6:55 AM 58.1 °F 53.6 °F 85% 29.98 in 10.0 mi South 6.9 mph - N/A   Overcast
7:15 AM 58.1 °F 53.6 °F 85% 29.99 in 10.0 mi SSW 4.6 mph - N/A   Overcast
7:35 AM 58.5 °F 54.0 °F 85% 30.00 in 10.0 mi SSW 5.8 mph - N/A   Overcast
7:55 AM 58.6 °F 54.1 °F 85% 30.01 in 10.0 mi SSW 6.9 mph - N/A   Overcast
8:15 AM 59.7 °F 54.9 °F 84% 30.01 in 10.0 mi SW 6.9 mph - N/A   Overcast
8:35 AM 60.8 °F 54.9 °F 81% 30.01 in 10.0 mi WSW 8.1 mph - N/A   Mostly Cloudy
8:55 AM 61.9 °F 55.2 °F 79% 30.02 in 10.0 mi SW 8.1 mph - N/A   Scattered Clouds
9:15 AM 63.0 °F 55.4 °F 76% 30.03 in 10.0 mi WSW 9.2 mph - N/A   Mostly Cloudy
9:35 AM 64.6 °F 55.0 °F 71% 30.04 in 10.0 mi West 13.8 mph 17.3 mph N/A   Mostly Cloudy
9:55 AM 65.1 °F 53.2 °F 65% 30.05 in 10.0 mi West 12.7 mph 18.4 mph N/A   Scattered Clouds
10:15 AM 66.2 °F 51.8 °F 60% 30.05 in 10.0 mi West 10.4 mph - N/A   Scattered Clouds
10:35 AM 67.6 °F 51.4 °F 56% 30.07 in 10.0 mi West 9.2 mph - N/A   Clear
10:55 AM 68.2 °F 50.7 °F 54% 30.07 in 10.0 mi WNW 8.1 mph - N/A   Clear
11:15 AM 69.3 °F 50.7 °F 52% 30.07 in 10.0 mi NNW 4.6 mph - N/A   Clear
11:35 AM 69.8 °F 48.2 °F 46% 30.08 in 10.0 mi WNW 8.1 mph - N/A   Clear
11:55 AM 70.7 °F 43.0 °F 37% 30.08 in 10.0 mi WNW 9.2 mph - N/A   Clear
12:15 PM 71.2 °F 41.9 °F 35% 30.09 in 10.0 mi NW 5.8 mph 10.4 mph N/A   Clear
12:35 PM 71.8 °F 42.8 °F 35% 30.09 in 10.0 mi NW 4.6 mph - N/A   Clear
12:55 PM 72.0 °F 40.6 °F 32% 30.09 in 10.0 mi NW 6.9 mph - N/A   Clear
1:15 PM 72.7 °F 40.1 °F 31% 30.08 in 10.0 mi NW 5.8 mph - N/A   Clear
1:35 PM 72.7 °F 39.4 °F 30% 30.08 in 10.0 mi WNW 9.2 mph - N/A   Clear
1:55 PM 74.5 °F 39.7 °F 29% 30.07 in 10.0 mi NNW 4.6 mph - N/A   Clear
2:15 PM 74.1 °F 39.6 °F 29% 30.07 in 10.0 mi North 6.9 mph - N/A   Clear
2:35 PM 74.8 °F 39.2 °F 28% 30.06 in 10.0 mi NNW 8.1 mph - N/A   Clear
2:55 PM 74.5 °F 38.3 °F 27% 30.06 in 10.0 mi Calm Calm - N/A   Clear
3:15 PM 74.8 °F 37.6 °F 26% 30.05 in 10.0 mi NW 6.9 mph - N/A   Clear
3:35 PM 74.8 °F 36.5 °F 25% 30.05 in 10.0 mi West 3.5 mph - N/A   Clear
3:55 PM 74.7 °F 36.1 °F 25% 30.06 in 10.0 mi WNW 6.9 mph - N/A   Clear
4:15 PM 74.5 °F 35.6 °F 24% 30.06 in 10.0 mi NW 5.8 mph - N/A   Clear
4:35 PM 73.4 °F 35.4 °F 25% 30.06 in 10.0 mi NNW 4.6 mph - N/A   Clear
4:55 PM 73.9 °F 35.6 °F 25% 30.06 in 10.0 mi Calm Calm - N/A   Clear
5:15 PM 73.6 °F 36.3 °F 26% 30.06 in 10.0 mi NW 5.8 mph - N/A   Clear
5:35 PM 73.4 °F 36.3 °F 26% 30.06 in 10.0 mi NNW 3.5 mph - N/A   Clear
5:55 PM 72.5 °F 36.5 °F 27% 30.07 in 10.0 mi NW 4.6 mph - N/A   Clear
6:15 PM 71.1 °F 35.8 °F 27% 30.08 in 10.0 mi NW 4.6 mph - N/A   Clear
6:35 PM 68.9 °F 35.8 °F 30% 30.09 in 10.0 mi NNW 4.6 mph - N/A   Clear
6:55 PM 67.5 °F 35.1 °F 30% 30.10 in 10.0 mi NNW 5.8 mph - N/A   Clear
7:15 PM 65.3 °F 34.7 °F 32% 30.10 in 10.0 mi NNW 3.5 mph - N/A   Clear
7:35 PM 63.9 °F 34.7 °F 34% 30.11 in 10.0 mi Calm Calm - N/A   Clear
7:55 PM 62.4 °F 35.2 °F 36% 30.12 in 10.0 mi Calm Calm - N/A   Clear
8:15 PM 61.0 °F 36.3 °F 40% 30.12 in 10.0 mi NNW 3.5 mph - N/A   Clear
8:35 PM 59.7 °F 36.5 °F 42% 30.12 in 10.0 mi NNW 3.5 mph - N/A   Clear
8:55 PM 59.7 °F 36.7 °F 42% 30.12 in 10.0 mi NNW 4.6 mph - N/A   Clear
9:15 PM 60.6 °F 36.5 °F 41% 30.13 in 10.0 mi Calm Calm - N/A   Clear
9:35 PM 59.9 °F 36.9 °F 42% 30.14 in 10.0 mi Calm Calm - N/A   Clear
9:55 PM 58.8 °F 37.6 °F 45% 30.15 in 10.0 mi Calm Calm - N/A   Clear
10:15 PM 56.1 °F 38.5 °F 52% 30.15 in 10.0 mi Calm Calm - N/A   Clear
10:35 PM 53.8 °F 39.9 °F 59% 30.14 in 10.0 mi Calm Calm - N/A   Clear
10:55 PM 52.5 °F 40.1 °F 63% 30.15 in 10.0 mi Calm Calm - N/A   Clear
11:15 PM 52.2 °F 40.6 °F 65% 30.15 in 10.0 mi Calm Calm - N/A   Clear
11:35 PM 51.6 °F 41.0 °F 67% 30.15 in 10.0 mi Calm Calm - N/A   Clear
11:55 PM 50.9 °F 41.0 °F 69% 30.15 in 10.0 mi Calm Calm - N/A   Clear